User: anonymous   Login
Location: Baix
(44.7118°N, 4.7648°E)
Time: 11:09:06
(UTC+00:00)
Language:

MOZ.5/SAFIR/RUBIN 5/SL-8 - Orbit

View from above orbital plane
View from above orbital plane
View from above satellite
View from above satellite

Ground track
Ground track

The orbit data is extracted from the following two-line orbital elements,

1 28898U 05043G   20304.87745573 +.00000081 +00000-0 +26305-4 0  9991
2 28898 098.0965 068.9747 0018528 286.7556 073.1612 14.60459710422968
Epoch (UTC): 30 October 2020 21:03:32
Eccentricity: 0.0018528
inclination: 98.0965°
perigee height: 678 km
apogee height: 705 km
right ascension of ascending node: 68.9747°
argument of perigee: 286.7556°
revolutions per day: 14.60459710
mean anomaly at epoch: 73.1612°
orbit number at epoch: 42296

The dashed part of the orbit path shows where the satellite is in the earth's shadow,  

DLR